Location: Street
(51.1247°N, 2.7429°W)
Time: 02:05:30
(UTC+00:00)

deb Explorer IX - Pass Details

Date: 06 December 2020
Orbit: 536 x 1104 km, 38.8° (Epoch: 20 January)

Event Time Altitude Azimuth Distance (km) Brightness Sun altitude
Rises 15:28:53 0° 244° (WSW) 3,842 ? 3.5°
Reaches altitude 10° 15:32:07 10° 234° (SW) 2,827 ? 3.1°
Maximum altitude 15:37:41 27° 179° (S) 1,751 ? 2.4°
Drops below altitude 10° 15:42:42 10° 124° (SE) 2,527 ? 1.9°
Sets 15:45:26 0° 112° (ESE) 3,365 ? 1.5°
